Regional Weather Roundup
Issued by NWS Charleston, SC

Current Version | Previous Version | Graphics & Text | Print | Product List | Glossary On
Versions: 1 2 3 4 5 6 7 8 9 10 11 12 13 14 15 16 17 18 19 20 21 22 23 24 25 26 27 28 29 30 31 32 33 34 35 36 37 38 39 40 41 42 43 44 45 46 47 48 49 50
000
ASUS42 KCHS 250327
RWRCHS

REGIONAL WEATHER ROUNDUP
NATIONAL WEATHER SERVICE CHARLESTON SC
1100 PM EDT SUN MAY 24 2015

NOTE: "FAIR" INDICATES FEW OR NO CLOUDS BELOW 12,000 FEET WITH NO
SIGNIFICANT WEATHER AND/OR OBSTRUCTIONS TO VISIBILITY.

NOT ALL STATIONS ARE QUALITY CONTROLLED BY THE NATIONAL
WEATHER SERVICE. USE DATA WITH CAUTION...ESPECIALLY
DEWPOINT OBSERVATIONS.

SCZ027-030-031-034>040-042>050-250400-
...SOUTHEAST SOUTH CAROLINA...

CITY           SKY/WX    TMP DP  RH WIND       PRES   REMARKS
N CHARLESTON   PTCLDY    71  58  63 SE6       30.31F
WATERFRONT PAR   N/A     75  63  66 SE14      30.29R
MOUNT PLEASANT FAIR      72  59  64 E6        30.32S
JOHNS ISLAND   CLEAR     73  63  68 E8        30.31F
PINOPOLIS        N/A     72  61  68 VRB3      30.26R
MONCKS CORNER  FAIR      66  59  77 CALM      30.32S
SUMMERVILLE    FAIR      64  61  88 CALM      30.32F
BEAUFORT MCAS  PTCLDY    74  64  71 E8        30.30R
BEAUFORT ARPT  FAIR      72  64  78 E8        30.29S
HILTON HEAD IS CLEAR     75  64  69 NE9       30.30S
WALTERBORO     CLEAR     64  61  88 E5        30.31F
ALLENDALE      FAIR      68  63  83 CALM      30.29F

...SOUTHERN MIDLANDS AND PEE DEE...

CITY           SKY/WX    TMP DP  RH WIND       PRES   REMARKS
GEORGETOWN     NOT AVBL
KINGSTREE      NOT AVBL
ORANGEBURG     CLEAR     70  58  65 SE5       30.32R
BARNWELL       FAIR      72  61  68 E6        30.31F
AIKEN          FAIR      68  54  60 SE5       30.35R
MANNING        FAIR      61  50  67 CALM      30.33S
COLUMBIA       CLEAR     71  56  58 SE7       30.31R
SUMTER         NOT AVBL
FLORENCE       CLEAR     66  57  72 CALM      30.34R
MYRTLE BEACH   CLEAR     73  57  56 SE10      30.36R
N MYRTLE BEACH CLEAR     74  57  55 VRB7      30.34R

$$

GAZ063-065-086>088-099>101-113>116-118-119-134>141-150-250400-
...SOUTHEAST GEORGIA...

CITY           SKY/WX    TMP DP  RH WIND       PRES   REMARKS
SAVANNAH ARPT  PTCLDY    72  63  73 E7        30.28S
HUNTER AAF     CLEAR     73  66  76 E9        30.26R
FORT STEWART   PTCLDY    73  65  75 E7        30.26R
STATESBORO     MOCLDY    71  66  84 CALM      30.30S
SYLVANIA       CLEAR     71  65  82 SE3       30.30S
CLAXTON        MOCLDY    72  64  78 E5        30.28S

...CSRA...CENTRAL AND FAR SOUTHEAST GEORGIA...

CITY           SKY/WX    TMP DP  RH WIND       PRES   REMARKS
THOMSON        CLEAR     74  63  68 SE7       30.33S
AUGUSTA-BUSH   CLEAR     70  60  70 SE9       30.29R
AUGUSTA-DANIEL CLEAR     73  59  61 SE6       30.30R
SWAINSBORO     FAIR      73  66  78 E7        30.29S
VIDALIA        CLEAR     72  64  78 E8        30.27F
EASTMAN        FAIR      73  65  76 SE6       30.29R
HAZLEHURST     FAIR      73  67  80 E8        30.25S
ALMA           MOCLDY    71  66  84 E7        30.25R
WAYCROSS       CLEAR     73  69  89 E7        30.25S
JESUP          FAIR      73  70  88 E3        30.26F
BAXLEY         MOCLDY    73  68  83 E5        30.26S
BRUNSWICK        N/A     77  68  73 E9        30.26S
SAINT SIMONS   NOT AVBL

$$

SCZ027-028-034-036>038-045-046-048>050-GAZ119-141-250400-
...LAKE AND SUPPLEMENTAL COASTAL OBSERVATIONS...

STATION/POSITION TIME  TEMP    WIND        PRES    WAVE   SWELL
                       AIR SEA DIR/SP/G            HT/PER HT/PER/DIR
                 (UTC) (F)     (DEG/KT/KT) (MB)    (FT/S) (FT/S/D)
UPR LAKE MARION  NOT AVBL
WINYAH BAY       0200   73     120/  9     1026.0
LAKE MURRAY      0200   74     130/  9/ 12 1025.4R
ACE BASIN NERRS  NOT AVBL
FORT PULASKI     0300   76 78   90/ 19/ 23 1025.7F
SAPELO ISLAND    0300   76     100/ 10     1025.0R

$$

ANZ835-935-AMZ111-154-330-350-352-354-370-450-454-472-250400-
...C-MAN AND BUOY OBSERVATIONS...

STATION/POSITION TIME  TEMP    WIND        PRES    WAVE   SWELL
                       AIR SEA DIR/SP/G            HT/PER HT/PER/DIR
                 (UTC) (F)     (DEG/KT/KT) (MB)    (FT/S) (FT/S/D)
BUOY 41004       0250   75 75  110/ 16/ 17 1026.0S   5/ 8   2/ 8
BUOY 41008       0250   75 75  110/ 17/ 19 1024.7R   6/ 7
FOLLY BEACH CMAN 0300   74     110/ 16/ 18 1026.5F
CAPERS NEARSHORE 0208   75     120/ 14/ 19 1026.8R
FRIPP NEARSHORE  NOT AVBL


STATION/POSITION TIME  TEMP    WIND        PRES    WAVE   SWELL
                       AIR SEA DIR/SP/G            HT/PER HT/PER/DIR
                 (UTC) (F)     (DEG/KT/KT) (MB)    (FT/S) (FT/S/D)
5E ST. MARYS GA  0221      78                N/A     5/ 7
FRYING PAN BUOY  0250   74 73  120/ 12/ 14 1028.2R   4/ 7   3/120/ 7
BUOY 41025       0250   74 77  110/  6/ 10 1028.2R   2/ 6   2/ 50/ 6
CAPE LOOKOUT NC  0300   73     120/  9/ 10 1027.8R
BUOY 41002       0250   72 74   90/ 16/ 17 1026.9S   4/ 6   2/100/ 9
BUOY 41010       0220   78 79   90/ 16/ 19 1023.7R
ST AUGUSTINE FL  0300   76 78   70/ 16/ 17 1024.3R


$$



USA.gov is the U.S. government's official web portal to all federal, state and local government web resources and services.